Back to catalog

FENGYUN 1C DEB

AlivePO
NORAD 30539·DEBRIS·🇨🇳 China

Launched May 10, 1999 from Taiyuan Satellite Launch Center

Loading…

Next Passes (next 24 hours)

TLE

FreshSource: Space-Track

Epoch: Sep 14, 2026, 11:11 UTC

1 30539U 99025AKD 26257.46616797  .00001031  00000-0  22339-3 0  9990
2 30539  98.8983 260.9721 0114902 156.9439 203.6973 14.56590753 33560

Track FENGYUN 1C DEB in real time with AllMySat

Download on the App Store